Date String (YYYY-MM-DD hh:mm:ss) UTC,Instrument flags,Ambient pressure (hPa),Sample flow (lpm),Bypass flow (lpm),Sample temperature (°C),Ambient temperature (°C),ASC tube jacket temperature (°C),LED temperature (°C),Box temperature (°C),Sample RH (%),Span deviation,Mass concentration (μg/m³),Mass concentration (μg/m³),Mass concentration (μg/m³)
DateTimeUTC,F1_M11,P_M11,Q1_M11,Q2_M11,T1_M11,T2_M11,T3_M11,T4_M11,T5_M11,U1_M11,ZSPAN_M11,X0_M11,X2_M11,X1_M11
2022-02-09 06:00:00,,0827.0,4.99,0.00,22.3,21.5,00.0,31.3,24.0,06.2,0000.0,0002.24,0001.26,0000.85
2022-02-09 06:01:00,,0827.0,5.01,0.00,22.2,21.5,00.0,31.3,24.0,06.1,0000.0,0002.34,0001.30,0000.86
2022-02-09 06:02:00,,0826.9,4.98,0.00,22.2,21.5,00.0,31.3,24.0,06.0,0000.0,0002.23,0001.30,0000.86
2022-02-09 06:03:00,,0826.9,5.02,0.00,22.3,21.5,00.0,31.3,24.0,05.7,0000.0,0002.14,0001.27,0000.85
2022-02-09 06:04:00,,0826.9,4.99,0.00,22.3,21.5,00.0,31.3,24.1,05.8,0000.0,0002.19,0001.23,0000.82
2022-02-09 06:05:00,,0826.9,4.99,0.00,22.3,21.5,00.0,31.3,24.1,05.7,0000.0,0002.16,0001.18,0000.79
2022-02-09 06:06:00,,0826.9,5.01,0.00,22.3,21.6,00.0,31.3,24.1,05.7,0000.0,0002.11,0001.15,0000.76
2022-02-09 06:07:00,,0826.9,4.99,0.00,22.3,21.6,00.0,31.3,24.1,05.8,0000.0,0002.08,0001.12,0000.74
2022-02-09 06:08:00,,0826.9,5.01,0.00,22.3,21.6,00.0,31.3,24.1,05.7,0000.0,0001.98,0001.06,0000.71
2022-02-09 06:09:00,,0826.9,4.99,0.00,22.3,21.6,00.0,31.3,24.1,05.9,0000.0,0001.81,0000.99,0000.68
2022-02-09 06:10:00,,0827.0,5.02,0.00,22.3,21.6,00.0,31.3,24.1,05.7,0000.0,0001.78,0000.96,0000.66
2022-02-09 06:11:00,,0826.9,5.00,0.00,22.3,21.6,00.0,31.3,24.1,06.2,0000.0,0001.74,0000.96,0000.65
2022-02-09 06:12:00,,0826.9,5.00,0.00,22.3,21.6,00.0,31.3,24.2,05.8,0000.0,0001.90,0000.98,0000.64
2022-02-09 06:13:00,,0826.9,5.00,0.00,22.3,21.6,00.0,31.3,24.1,05.9,0000.0,0001.84,0000.95,0000.64
2022-02-09 06:14:00,,0826.9,5.02,0.00,22.3,21.6,00.0,31.3,24.1,05.9,0000.0,0001.82,0000.96,0000.64
2022-02-09 06:15:00,,0826.9,5.00,0.00,22.4,21.7,00.0,31.3,24.2,05.9,0000.0,0001.67,0000.94,0000.65
2022-02-09 06:16:00,,0826.7,5.00,0.00,22.4,21.7,00.0,31.3,24.2,05.8,0000.0,0001.55,0000.91,0000.64
2022-02-09 06:17:00,,0826.8,5.01,0.00,22.4,21.6,00.0,31.3,24.1,05.8,0000.0,0001.52,0000.90,0000.63
2022-02-09 06:18:00,,0826.8,4.99,0.00,22.4,21.6,00.0,31.3,24.1,05.7,0000.0,0001.54,0000.90,0000.62
2022-02-09 06:19:00,,0826.7,5.01,0.00,22.4,21.6,00.0,31.3,24.2,05.8,0000.0,0001.72,0000.93,0000.62
2022-02-09 06:20:00,,0826.7,4.99,0.00,22.4,21.6,00.0,31.3,24.1,05.7,0000.0,0002.45,0000.92,0000.62
2022-02-09 06:21:00,,0826.8,5.00,0.00,22.4,21.7,00.0,31.3,24.1,06.0,0000.0,0002.52,0000.92,0000.63
2022-02-09 06:22:00,,0826.8,5.01,0.00,22.4,21.7,00.0,31.3,24.2,06.1,0000.0,0002.52,0000.92,0000.64
2022-02-09 06:23:00,,0826.9,4.99,0.00,22.4,21.7,00.0,31.3,24.2,06.0,0000.0,0002.31,0000.89,0000.64
2022-02-09 06:24:00,,0826.9,5.01,0.00,22.4,21.6,00.0,31.3,24.2,06.0,0000.0,0002.40,0000.88,0000.64
2022-02-09 06:25:00,,0827.1,5.00,0.00,22.4,21.6,00.0,31.4,24.2,05.7,0000.0,0003.12,0000.89,0000.64
2022-02-09 06:26:00,,0826.9,4.99,0.00,22.4,21.7,00.0,31.4,24.3,06.0,0000.0,0003.12,0000.89,0000.65
2022-02-09 06:27:00,,0826.8,5.00,0.00,22.4,21.7,00.0,31.4,24.3,06.0,0000.0,0003.19,0000.93,0000.67
2022-02-09 06:28:00,,0826.8,5.01,0.00,22.4,21.7,00.0,31.4,24.3,06.2,0000.0,0003.19,0000.95,0000.69
2022-02-09 06:29:00,,0826.9,4.99,0.00,22.4,21.7,00.0,31.4,24.3,06.3,0000.0,0003.18,0000.95,0000.70
2022-02-09 06:30:00,,0826.9,4.98,0.00,22.4,21.8,00.0,31.4,24.3,06.6,0000.0,0003.10,0000.98,0000.71
2022-02-09 06:31:00,,0826.9,5.02,0.00,22.5,21.8,00.0,31.4,24.3,06.7,0000.0,0002.52,0001.03,0000.72
2022-02-09 06:32:00,,0826.9,4.99,0.00,22.5,21.8,00.0,31.4,24.3,06.3,0000.0,0002.56,0001.04,0000.73
2022-02-09 06:33:00,,0826.9,5.00,0.00,22.5,21.8,00.0,31.4,24.3,05.8,0000.0,0002.67,0001.09,0000.73
2022-02-09 06:34:00,,0827.0,5.02,0.00,22.5,21.8,00.0,31.4,24.3,05.9,0000.0,0002.77,0001.13,0000.74
2022-02-09 06:35:00,,0826.8,4.99,0.00,22.5,21.8,00.0,31.4,24.3,06.1,0000.0,0002.70,0001.14,0000.75
2022-02-09 06:36:00,,0826.8,4.99,0.00,22.5,21.8,00.0,31.4,24.3,05.7,0000.0,0002.04,0001.15,0000.75
2022-02-09 06:37:00,,0826.8,5.01,0.00,22.5,21.8,00.0,31.4,24.3,05.8,0000.0,0002.17,0001.19,0000.76
2022-02-09 06:38:00,,0826.8,5.00,0.00,22.5,21.8,00.0,31.4,24.3,05.7,0000.0,0002.15,0001.18,0000.75
2022-02-09 06:39:00,,0827.0,5.00,0.00,22.5,21.8,00.0,31.4,24.3,05.8,0000.0,0002.18,0001.18,0000.74
2022-02-09 06:40:00,,0826.9,5.01,0.00,22.5,21.8,00.0,31.4,24.3,05.7,0000.0,0002.30,0001.16,0000.73
2022-02-09 06:41:00,,0826.8,5.00,0.00,22.5,21.8,00.0,31.4,24.3,05.7,0000.0,0002.44,0001.12,0000.72
2022-02-09 06:42:00,,0826.9,4.99,0.00,22.5,21.8,00.0,31.4,24.3,05.8,0000.0,0002.40,0001.10,0000.72
2022-02-09 06:43:00,,0826.9,5.02,0.00,22.5,21.8,00.0,31.5,24.3,05.6,0000.0,0002.25,0001.09,0000.72
2022-02-09 06:44:00,,0826.9,4.99,0.00,22.5,21.8,00.0,31.4,24.3,05.8,0000.0,0002.16,0001.04,0000.70
2022-02-09 06:45:00,,0826.9,5.01,0.00,22.5,21.8,00.0,31.4,24.3,05.9,0000.0,0002.03,0000.99,0000.69
2022-02-09 06:46:00,,0827.0,4.99,0.00,22.5,21.8,00.0,31.4,24.3,05.7,0000.0,0002.12,0001.01,0000.68
2022-02-09 06:47:00,,0826.9,5.01,0.00,22.4,21.8,00.0,31.4,24.3,05.7,0000.0,0002.19,0001.02,0000.67
2022-02-09 06:48:00,,0826.9,5.01,0.00,22.4,21.8,00.0,31.4,24.3,05.8,0000.0,0002.12,0000.99,0000.66
2022-02-09 06:49:00,,0826.9,4.99,0.00,22.4,21.8,00.0,31.4,24.3,05.7,0000.0,0002.14,0001.00,0000.66
2022-02-09 06:50:00,,0827.0,5.00,0.00,22.5,21.8,00.0,31.4,24.3,05.8,0000.0,0002.17,0001.01,0000.66
2022-02-09 06:51:00,,0826.9,5.01,0.00,22.5,21.8,00.0,31.4,24.3,05.7,0000.0,0002.15,0001.01,0000.66
2022-02-09 06:52:00,,0827.1,4.99,0.00,22.5,21.8,00.0,31.4,24.3,05.7,0000.0,0001.80,0001.03,0000.67
2022-02-09 06:53:00,,0827.0,5.00,0.00,22.5,21.8,00.0,31.4,24.3,05.8,0000.0,0001.88,0001.05,0000.66
2022-02-09 06:54:00,,0827.0,5.01,0.00,22.5,21.8,00.0,31.4,24.3,05.7,0000.0,0001.92,0001.06,0000.66
2022-02-09 06:55:00,,0827.0,5.00,0.00,22.5,21.8,00.0,31.4,24.3,05.8,0000.0,0001.87,0001.05,0000.66
2022-02-09 06:56:00,,0827.0,4.99,0.00,22.5,21.8,00.0,31.4,24.3,05.9,0000.0,0001.92,0001.05,0000.65
2022-02-09 06:57:00,,0826.9,5.01,0.00,22.5,21.8,00.0,31.4,24.3,06.1,0000.0,0001.93,0001.03,0000.65
2022-02-09 06:58:00,,0826.9,5.00,0.00,22.5,21.8,00.0,31.4,24.3,06.3,0000.0,0001.77,0001.00,0000.65
2022-02-09 06:59:00,,0827.0,5.00,0.00,22.5,21.8,00.0,31.5,24.3,06.1,0000.0,0001.85,0001.01,0000.66
